GW2753 Weather Reports


time (UTC)temp
F
wind
direction
speed
knots
gust
knots
rain 1hr
in
rain 24hr
in
rain mn
in
humidity
%
barometer
mb
20260906110050 70 0 0.0 2.6 0.00 0.00 0.00 92 1013.6
20260906104545 70 180 0.9 3.5 0.00 0.00 0.00 92 1013.4
20260906103042 70 180 0.0 2.6 0.00 0.00 0.00 92 1013.1
20260906101544 70 0 0.0 2.6 0.00 0.00 0.00 92 1013.1
20260906100043 70 0 0.0 3.5 0.00 0.00 0.00 92 1012.8
20260906094544 70 180 0.0 2.6 0.00 0.00 0.00 92 1012.7
20260906093051 70 180 0.0 2.6 0.00 0.00 0.00 92 1012.7
20260906091550 70 180 0.0 1.7 0.00 0.00 0.00 92 1012.7
20260906084551 70 0 0.0 0.0 0.00 0.00 0.00 92 1012.9
20260906083043 70 0 0.0 0.0 0.00 0.00 0.00 92 1012.9
20260906081551 70 0 0.0 1.7 0.00 0.00 0.00 92 1012.6
20260906080045 70 180 0.0 2.6 0.00 0.00 0.00 92 1012.6
20260906074550 70 180 0.9 1.7 0.00 0.00 0.00 92 1012.5
20260906073053 70 180 0.9 2.6 0.00 0.00 0.00 92 1012.5
20260906071544 70 180 0.9 2.6 0.00 0.00 0.00 92 1012.5
20260906070054 70 180 0.9 2.6 0.00 0.00 0.00 92 1012.4
20260906064538 70 180 0.0 1.7 0.00 0.00 0.00 92 1012.5
20260906063044 70 180 0.9 1.7 0.00 0.00 0.00 92 1012.8
20260906061559 70 0 0.0 0.9 0.00 0.00 0.00 92 1013.0
20260906060050 70 180 0.9 2.6 0.00 0.00 0.00 92 1013.0
20260906054549 70 180 0.9 2.6 0.00 0.00 0.00 92 1012.9
20260906053047 70 0 0.0 1.7 0.00 0.00 0.00 92 1013.0
20260906051541 70 180 0.0 1.7 0.00 0.00 0.00 92 1013.0
20260906050101 70 180 0.9 1.7 0.00 0.00 0.00 92 1013.1
20260906044546 70 180 0.9 2.6 0.00 0.00 0.00 92 1013.0
20260906043055 70 180 0.9 1.7 0.00 0.00 0.00 92 1013.1
20260906041543 70 180 0.9 2.6 0.00 0.00 0.00 92 1012.7
20260906040104 71 0 0.9 1.7 0.00 0.00 0.00 92 1012.8
20260906034547 71 180 1.7 2.6 0.00 0.00 0.00 92 1013.2
20260906033045 71 180 0.0 1.7 0.00 0.00 0.00 92 1013.2
20260906031540 71 180 0.0 1.7 0.00 0.00 0.00 91 1013.5
20260906030041 71 0 0.0 0.0 0.00 0.00 0.00 91 1013.3
20260906024544 72 0 0.0 0.0 0.00 0.00 0.00 91 1013.5
20260906023058 72 0 0.0 0.9 0.00 0.00 0.00 91 1013.5
20260906021543 72 0 0.0 0.0 0.00 0.00 0.00 91 1013.7
20260906020049 72 0 0.0 0.0 0.00 0.00 0.00 90 1013.5
20260906014555 72 0 0.0 2.6 0.00 0.00 0.00 90 1013.1
20260906013044 73 180 1.7 2.6 0.00 0.00 0.00 90 1012.9
20260906011556 73 0 0.0 2.6 0.00 0.00 0.00 90 1012.4
20260906010049 74 180 0.9 1.7 0.00 0.00 0.00 90 1012.3
20260906004542 74 180 0.0 0.0 0.00 0.00 0.00 89 1012.2
20260906003053 75 0 0.0 0.0 0.00 0.00 0.00 89 1012.2
20260906001550 75 0 0.0 0.0 0.00 0.00 0.00 89 1012.0
20260906000047 75 0 0.0 0.0 0.00 0.00 0.00 89 1012.3
20260905234553 76 0 0.0 0.0 0.00 0.00 0.00 88 1012.3
20260905233055 76 0 0.0 0.0 0.00 0.00 0.00 87 1012.5
20260905231549 77 0 0.0 1.7 0.00 0.00 0.00 87 1012.4
20260905230044 78 0 0.0 1.7 0.00 0.00 0.00 86 1012.4
20260905224604 79 0 0.0 0.0 0.00 0.00 0.00 84 1012.3
20260905223050 80 0 0.0 2.6 0.00 0.00 0.00 82 1012.2
20260905221546 83 0 0.0 0.0 0.00 0.00 0.00 77 1012.1
20260905220044 85 0 0.0 1.7 0.00 0.00 0.00 73 1012.1
20260905214541 86 0 0.0 1.7 0.00 0.00 0.00 70 1012.1
20260905213047 87 274 0.9 2.6 0.00 0.00 0.00 66 1011.8
20260905211554 87 248 0.9 7.0 0.00 0.00 0.00 62 1011.6
20260905210042 88 353 0.9 4.3 0.00 0.00 0.00 63 1011.5
20260905204549 88 256 0.0 4.3 0.00 0.00 0.00 65 1011.5
20260905203046 88 0 0.0 2.6 0.00 0.00 0.00 68 1011.5
20260905201543 87 0 0.0 3.5 0.00 0.00 0.00 67 1011.5
20260905200055 87 349 0.0 6.1 0.00 0.00 0.00 70 1011.7
20260905194547 88 0 1.7 4.3 0.00 0.00 0.00 60 1011.9
20260905193043 88 268 0.9 3.5 0.00 0.00 0.00 61 1012.1
20260905191546 87 230 1.7 4.3 0.00 0.00 0.00 62 1012.3
20260905190055 87 239 1.7 3.5 0.00 0.00 0.00 62 1012.7
20260905184600 86 204 1.7 4.3 0.00 0.00 0.00 62 1012.9
20260905183047 86 228 2.6 7.0 0.00 0.00 0.00 64 1013.2
20260905181544 85 199 0.9 3.5 0.00 0.00 0.00 66 1013.5
20260905180050 84 29 0.9 3.5 0.00 0.00 0.00 69 1013.4
20260905174547 84 262 1.7 4.3 0.00 0.00 0.00 71 1013.4
20260905173053 82 289 0.9 6.1 0.00 0.00 0.00 74 1013.6
20260905171542 80 0 0.9 7.0 0.00 0.00 0.00 79 1013.9
20260905170051 78 195 2.6 5.2 0.00 0.00 0.00 85 1014.0
20260905164547 76 79 1.7 3.5 0.00 0.00 0.00 89 1014.5
20260905163044 76 0 0.0 1.7 0.00 0.00 0.00 90 1014.6
20260905161551 75 0 0.0 2.6 0.00 0.00 0.00 90 1014.5
20260905160051 75 180 0.0 2.6 0.00 0.00 0.00 90 1014.9
20260905154546 74 0 0.0 8.7 0.00 0.00 0.00 90 1014.4
20260905153101 74 180 1.7 7.0 0.00 0.00 0.00 91 1013.4
20260905151552 73 180 0.9 4.3 0.00 0.00 0.00 92 1013.3
20260905150046 73 180 1.7 7.0 0.00 0.00 0.00 93 1013.5
20260905144547 73 180 0.9 3.5 0.00 0.00 0.00 93 1014.1
20260905143043 72 180 1.7 2.6 0.00 0.00 0.00 93 1015.3
20260905141549 72 0 0.0 2.6 0.00 0.00 0.00 93 1015.3
20260905140057 72 0 0.0 2.6 0.00 0.00 0.00 93 1015.5
20260905134544 72 0 0.0 1.7 0.00 0.00 0.00 93 1015.8
20260905133042 72 0 0.9 2.6 0.00 0.00 0.00 93 1015.6
20260905131556 72 0 0.0 3.5 0.00 0.00 0.00 92 1015.5
20260905130052 72 180 1.7 5.2 0.00 0.00 0.00 93 1015.6
20260905124552 72 180 1.7 3.5 0.00 0.00 0.00 93 1015.2
20260905123043 71 0 0.9 13.0 0.00 0.00 0.00 93 1014.5
20260905121542 71 180 0.9 1.7 0.00 0.00 0.00 93 1013.6
20260905120043 70 0 0.0 1.7 0.00 0.00 0.00 93 1013.3
20260905114546 70 180 0.9 2.6 0.00 0.00 0.00 93 1013.3
20260905113045 70 0 0.0 0.0 0.00 0.00 0.00 93 1013.4
20260905111602 70 0 0.0 0.0 0.00 0.00 0.00 93 1013.3